[[{"header":{"parameterUnit":"m.s-1","parameterCategory":1,"la1":30.2992,"la2":30.254,"lo1":-89.0895,"lo2":-89.0443,"dy":0.0025,"dx":0.0025,"nx":19,"ny":19,"refTime":"2026-05-12T09:00:00:Z","depth":0,"parameterNumber":2,"parameterNumberName":"U-component_of_WINDS"},"data":[0,0,0,2.4697,2.47,2.4833,2.4833,2.5011,2.5012,0,0,0,0,0,0,0,0,0,0,0,2.4662,2.4663,2.4697,2.47,2.4833,2.4833,2.501,2.5012,0,0,0,0,0,0,0,0,0,0,0,2.4661,2.4662,2.4664,2.4701,2.4833,2.4833,2.501,2.4907,0,0,0,0,0,0,0,0,0,0,2.4777,2.4748,2.4662,2.4664,2.4701,2.4833,2.4833,2.4902,2.4914,2.4954,0,2.499,0,2.5004,2.5025,2.5025,0,0,0,2.4697,2.4739,2.4771,2.4664,2.4703,2.4832,2.4772,2.4909,2.4922,2.4969,2.4992,2.4999,2.5007,2.5026,2.5027,2.5266,2.5267,0,0,2.469,2.4688,2.4762,2.4779,2.4759,2.4768,2.4776,2.4916,2.4942,2.4993,2.5003,2.501,2.5027,2.5029,2.5265,2.5266,0,0,0,2.4671,2.4683,2.4711,2.4772,2.4796,2.4772,2.4781,2.4935,2.4945,2.5004,2.5012,2.5028,2.503,2.5263,2.5265,2.5325,0,0,0,2.4666,2.4671,2.4708,2.4708,2.4793,2.4867,2.4798,2.4935,2.4951,2.5011,2.5028,2.5032,2.5262,2.5264,2.5321,2.5354,0,0,0,2.4651,2.467,2.469,2.4708,2.4765,2.4865,2.4882,2.4939,2.4956,2.5026,2.5033,2.5261,2.5264,2.5316,2.5347,2.5417,0,0,0,2.4635,2.4741,2.4691,2.4813,2.4764,2.4901,2.4881,2.4984,2.505,2.5029,2.5262,2.5265,2.5315,2.5343,2.5412,2.5475,2.5501,0,0,2.4768,2.4757,2.4829,2.4788,2.4933,2.4881,2.5035,2.5098,2.5107,2.5213,2.5218,2.5322,2.5347,2.5416,2.5645,2.5666,0,0,0,2.4871,2.4922,2.4961,2.5025,2.5075,2.5122,2.5162,2.5185,2.5275,2.5161,2.5366,2.538,2.5421,2.5451,2.5469,2.5504,2.5279,2.5278,2.5278,2.5056,2.5061,2.5181,2.5202,2.5264,2.5304,2.5355,2.5394,2.5381,2.5429,2.5461,2.5599,2.5635,2.5648,2.5685,2.5494,2.5494,2.5494,2.5495,2.5252,2.5326,2.5307,2.5415,2.5421,2.5512,2.5555,2.5543,2.563,2.5576,2.5612,2.5553,2.567,2.5703,2.5499,2.5498,2.5498,2.5497,2.5497,2.5374,2.5411,2.5437,2.553,2.5601,2.5619,2.5703,2.5705,2.5707,2.5742,2.5776,2.5775,2.5775,2.5758,2.5759,2.5759,2.576,2.576,2.576,2.5491,2.5519,2.559,2.5653,2.5694,2.5748,2.579,2.5831,2.5877,2.5871,2.5872,2.5855,2.568,2.5637,2.5768,2.5767,2.5766,2.5765,2.5764,2.5689,2.5644,2.5753,2.5795,2.5869,2.594,2.5941,2.6024,2.6058,2.6099,2.6075,2.5945,2.5934,2.5921,2.5885,2.6072,2.6072,2.6072,2.6073,2.5793,2.5787,2.5899,2.5965,2.603,2.6042,2.6166,2.6199,2.6227,2.6249,2.6222,2.6174,2.616,2.6158,2.6139,2.6105,2.6345,2.6345,2.6345,2.5915,2.5916,2.6021,2.6047,2.6105,2.6156,2.6272,2.635,2.6372,2.6356,2.6266,2.6254,2.6177,2.6152,2.6135,2.6105,2.6044,0,0]},{"header":{"parameterUnit":"m.s-1","parameterCategory":1,"la1":30.2992,"la2":30.254,"lo1":-89.0895,"lo2":-89.0443,"dy":0.0025,"dx":0.0025,"nx":19,"ny":19,"refTime":"2026-05-12T09:00:00:Z","depth":0,"parameterNumber":3,"parameterNumberName":"V-component_of_WINDS"},"data":[0,0,0,-1.1023,-1.1023,-1.1009,-1.1009,-1.0988,-1.0988,0,0,0,0,0,0,0,0,0,0,0,-1.1027,-1.1027,-1.1023,-1.1023,-1.1009,-1.1009,-1.0988,-1.0988,0,0,0,0,0,0,0,0,0,0,0,-1.1027,-1.1027,-1.1027,-1.1023,-1.1009,-1.1009,-1.0988,-1.0999,0,0,0,0,0,0,0,0,0,0,-1.1013,-1.1016,-1.1027,-1.1027,-1.1023,-1.1009,-1.1009,-1.1,-1.0998,-1.0993,0,-1.099,0,-1.0988,-1.0986,-1.0986,0,0,0,-1.1023,-1.1018,-1.1014,-1.1027,-1.1023,-1.1009,-1.1015,-1.0999,-1.0998,-1.0991,-1.0989,-1.0989,-1.0988,-1.0986,-1.0986,-1.0958,-1.0958,0,0,-1.1024,-1.1024,-1.1015,-1.1014,-1.1017,-1.1016,-1.1015,-1.0998,-1.0995,-1.0989,-1.0988,-1.0988,-1.0986,-1.0986,-1.0958,-1.0958,0,0,0,-1.1026,-1.1024,-1.1022,-1.1014,-1.1012,-1.1015,-1.1014,-1.0996,-1.0995,-1.0988,-1.0987,-1.0986,-1.0985,-1.0959,-1.0958,-1.0952,0,0,0,-1.1027,-1.1026,-1.1022,-1.1022,-1.1012,-1.1004,-1.1012,-1.0996,-1.0995,-1.0987,-1.0986,-1.0985,-1.0959,-1.0959,-1.0953,-1.0949,0,0,0,-1.1028,-1.1026,-1.1024,-1.1022,-1.1016,-1.1004,-1.1003,-1.0996,-1.0994,-1.0986,-1.0985,-1.0959,-1.0959,-1.0953,-1.095,-1.0941,0,0,0,-1.1029,-1.1018,-1.1024,-1.1011,-1.1016,-1.1002,-1.1003,-1.0992,-1.0984,-1.0985,-1.0959,-1.0958,-1.0953,-1.095,-1.0942,-1.0934,-1.0931,0,0,-1.1015,-1.1016,-1.1009,-1.1013,-1.0998,-1.1004,-1.0987,-1.0979,-1.0977,-1.0964,-1.0964,-1.0953,-1.095,-1.0942,-1.0916,-1.0914,0,0,0,-1.1004,-1.0998,-1.0994,-1.0988,-1.0982,-1.0977,-1.0972,-1.0969,-1.0959,-1.0971,-1.0948,-1.0946,-1.0941,-1.0937,-1.0935,-1.0931,-1.0957,-1.0957,-1.0957,-1.0982,-1.0982,-1.097,-1.0968,-1.0961,-1.0957,-1.0951,-1.0946,-1.0947,-1.0942,-1.0938,-1.0922,-1.0918,-1.0916,-1.0912,-1.0934,-1.0934,-1.0934,-1.0934,-1.096,-1.0952,-1.0955,-1.0944,-1.0944,-1.0933,-1.0929,-1.093,-1.0919,-1.0925,-1.0921,-1.0927,-1.0914,-1.091,-1.0934,-1.0934,-1.0934,-1.0934,-1.0934,-1.0946,-1.0942,-1.0939,-1.093,-1.0923,-1.0921,-1.0911,-1.0911,-1.0911,-1.0907,-1.0902,-1.0902,-1.0901,-1.0905,-1.0905,-1.0905,-1.0905,-1.0905,-1.0905,-1.0931,-1.0928,-1.0921,-1.0915,-1.0911,-1.0905,-1.0901,-1.0896,-1.0891,-1.0892,-1.0892,-1.0893,-1.0913,-1.0918,-1.0904,-1.0904,-1.0904,-1.0904,-1.0904,-1.0907,-1.0912,-1.0901,-1.0897,-1.089,-1.0882,-1.0883,-1.0873,-1.087,-1.0865,-1.0867,-1.0883,-1.0883,-1.0885,-1.0889,-1.0868,-1.0868,-1.0868,-1.0868,-1.0894,-1.0895,-1.0883,-1.0877,-1.087,-1.087,-1.0855,-1.0852,-1.0849,-1.0846,-1.0849,-1.0855,-1.0857,-1.0856,-1.0858,-1.0862,-1.0834,-1.0834,-1.0834,-1.0879,-1.0879,-1.0868,-1.0866,-1.0861,-1.0856,-1.0842,-1.0833,-1.0831,-1.0833,-1.0844,-1.0845,-1.0854,-1.0857,-1.0858,-1.0861,-1.0868,0,0]}]]